Location: Aydie
(43.5695°N, 0.1043°W)
Time: 06:07:47
(UTC+00:00)

RESURS DK-1 - Pass Details

Date: 17 November 2025
Orbit: 524 x 535 km, 69.9° (Epoch: 04 December)

Event Time Altitude Azimuth Distance (km) Brightness Sun altitude
Rises 17:03:45 0° 342° (NNW) 2,697 5.8 -5.9°
Reaches altitude 10° 17:06:10 10° 354° (N) 1,801 4.8 -6.3°
Maximum altitude 17:09:42 29° 55° (NE) 1,005 3.1 -6.9°
Drops below altitude 10° 17:13:12 10° 117° (ESE) 1,788 4.5 -7.5°
Sets 17:15:35 0° 129° (SE) 2,673 5.5 -7.9°
